timestamp,wind_dir_avg,wind_spd_avg,wind_spd_max_dir,wind_spd_gust,battery_voltage,lat,long
2020-01-04 00:04:01+00:00,282.0,7.42,287.0,8.77,12.57,47.59359,-54.27349
2020-01-04 00:14:01+00:00,281.0,6.1,271.0,7.41,12.57,47.59359,-54.27349
2020-01-04 00:24:01+00:00,288.0,5.43,291.0,6.46,12.57,47.59359,-54.27349
2020-01-04 00:34:01+00:00,292.0,5.63,295.0,6.92,12.57,47.59359,-54.27349
2020-01-04 00:44:01+00:00,288.0,6.46,287.0,7.48,12.57,47.59359,-54.27349
2020-01-04 00:54:01+00:00,290.0,6.05,289.0,8.23,12.57,47.59359,-54.27349
2020-01-04 01:04:01+00:00,293.0,6.28,299.0,7.89,12.57,47.59359,-54.27349
2020-01-04 01:14:01+00:00,291.0,6.18,295.0,7.46,12.57,47.59359,-54.27349
2020-01-04 01:24:01+00:00,300.0,5.66,299.0,6.46,12.57,47.59359,-54.27349
2020-01-04 01:34:01+00:00,287.0,4.66,289.0,5.33,12.57,47.59359,-54.27349
2020-01-04 01:44:01+00:00,297.0,5.28,302.0,5.87,12.57,47.59359,-54.27349
2020-01-04 01:54:01+00:00,280.0,5.43,283.0,6.85,12.57,47.59359,-54.27349
2020-01-04 02:04:01+00:00,279.0,4.43,280.0,4.83,12.57,47.59359,-54.27349
2020-01-04 02:14:01+00:00,283.0,2.0,277.0,2.76,12.57,47.59359,-54.27349
2020-01-04 02:24:01+00:00,310.0,1.46,310.0,1.92,12.57,47.59359,-54.27349
2020-01-04 02:34:01+00:00,326.0,1.4,325.0,2.26,12.57,47.59359,-54.27349
2020-01-04 02:44:01+00:00,309.0,1.0,303.0,1.49,12.57,47.59359,-54.27349
2020-01-04 02:54:01+00:00,54.0,0.81,53.0,1.31,12.57,47.59359,-54.27349
2020-01-04 03:04:01+00:00,286.0,1.14,277.0,1.33,12.57,47.59359,-54.27349
2020-01-04 03:14:01+00:00,288.0,2.81,303.0,3.58,12.49,47.59359,-54.27349
2020-01-04 03:24:01+00:00,322.0,2.43,327.0,2.9,12.49,47.59359,-54.27349
2020-01-04 03:34:01+00:00,292.0,2.15,294.0,2.93,12.49,47.59359,-54.27349
2020-01-04 03:44:01+00:00,280.0,2.35,279.0,2.98,12.49,47.59359,-54.27349
2020-01-04 03:54:01+00:00,294.0,2.59,305.0,3.33,12.49,47.59359,-54.27349
2020-01-04 04:04:01+00:00,292.0,2.27,291.0,2.91,12.49,47.59359,-54.27349
2020-01-04 04:14:01+00:00,305.0,2.51,302.0,2.99,12.49,47.59359,-54.27349
2020-01-04 04:24:01+00:00,283.0,2.11,282.0,2.64,12.49,47.59359,-54.27349
2020-01-04 04:34:01+00:00,324.0,2.24,323.0,2.85,12.49,47.59359,-54.27349
2020-01-04 04:44:01+00:00,312.0,0.89,317.0,1.45,12.49,47.59359,-54.27349
2020-01-04 04:54:01+00:00,300.0,1.61,304.0,1.92,12.49,47.59359,-54.27349
2020-01-04 05:04:01+00:00,298.0,1.31,299.0,1.72,12.49,47.59359,-54.27349
2020-01-04 05:14:01+00:00,305.0,1.24,290.0,1.83,12.49,47.59359,-54.27349
2020-01-04 05:24:01+00:00,272.0,2.29,269.0,2.68,12.49,47.59359,-54.27349
2020-01-04 05:34:01+00:00,267.0,3.26,266.0,4.18,12.49,47.59359,-54.27349
2020-01-04 05:44:01+00:00,287.0,1.73,302.0,2.06,12.49,47.59359,-54.27349
2020-01-04 05:54:01+00:00,271.0,2.71,271.0,3.54,12.49,47.59359,-54.27349
2020-01-04 06:04:01+00:00,262.0,3.14,255.0,3.8,12.49,47.59359,-54.27349
2020-01-04 06:14:01+00:00,266.0,3.24,267.0,3.89,12.49,47.59359,-54.27349
2020-01-04 06:24:01+00:00,273.0,3.58,272.0,4.44,12.49,47.59359,-54.27349
2020-01-04 06:34:01+00:00,276.0,3.99,281.0,4.73,12.49,47.59359,-54.27349
2020-01-04 06:44:01+00:00,269.0,5.19,270.0,6.03,12.49,47.59359,-54.27349
2020-01-04 06:54:01+00:00,260.0,4.8,255.0,5.32,12.49,47.59359,-54.27349
2020-01-04 07:04:01+00:00,269.0,4.83,265.0,5.31,12.49,47.59359,-54.27349
2020-01-04 07:14:01+00:00,269.0,4.55,268.0,5.29,12.49,47.59359,-54.27349
2020-01-04 07:24:01+00:00,268.0,5.04,268.0,5.75,12.49,47.59359,-54.27349
2020-01-04 07:34:01+00:00,343.0,2.21,4.0,2.65,12.49,47.59359,-54.27349
2020-01-04 07:44:01+00:00,7.0,2.81,8.0,3.47,12.49,47.59359,-54.27349
2020-01-04 07:54:01+00:00,351.0,1.12,352.0,2.35,12.49,47.59359,-54.27349
2020-01-04 08:04:01+00:00,358.0,2.08,357.0,2.48,12.49,47.59359,-54.27349
2020-01-04 08:14:01+00:00,10.0,1.4,5.0,1.93,12.41,47.59359,-54.27349
2020-01-04 08:24:01+00:00,0.0,1.13,3.0,1.44,12.41,47.59359,-54.27349
2020-01-04 08:34:01+00:00,16.0,1.71,19.0,2.06,12.41,47.59359,-54.27349
2020-01-04 08:44:01+00:00,44.0,1.53,34.0,1.96,12.41,47.59359,-54.27349
2020-01-04 08:54:01+00:00,23.0,1.51,20.0,1.81,12.41,47.59359,-54.27349
2020-01-04 09:04:01+00:00,24.0,1.54,24.0,1.95,12.41,47.59359,-54.27349
2020-01-04 09:14:01+00:00,13.0,2.08,17.0,2.46,12.41,47.59359,-54.27349
2020-01-04 09:24:01+00:00,357.0,3.09,355.0,3.43,12.41,47.59359,-54.27349
2020-01-04 09:34:01+00:00,1.0,2.96,3.0,3.49,12.41,47.59359,-54.27349
2020-01-04 09:44:01+00:00,19.0,1.98,11.0,2.62,12.41,47.59359,-54.27349
2020-01-04 09:54:01+00:00,15.0,2.02,18.0,2.3,12.41,47.59359,-54.27349
2020-01-04 10:04:01+00:00,17.0,1.85,14.0,2.25,12.41,47.59359,-54.27349
2020-01-04 10:14:01+00:00,3.0,0.9,17.0,1.21,12.41,47.59359,-54.27349
2020-01-04 10:24:01+00:00,46.0,0.83,55.0,1.19,12.41,47.59359,-54.27349
2020-01-04 10:34:01+00:00,34.0,0.56,40.0,0.73,12.41,47.59359,-54.27349
2020-01-04 10:44:01+00:00,302.0,0.64,277.0,1.2,12.41,47.59359,-54.27349
2020-01-04 10:54:01+00:00,280.0,1.99,273.0,2.73,12.41,47.59359,-54.27349
2020-01-04 11:04:01+00:00,275.0,5.62,274.0,6.27,12.41,47.59359,-54.27349
2020-01-04 11:14:01+00:00,277.0,4.77,277.0,5.37,12.41,47.59359,-54.27349
2020-01-04 11:24:01+00:00,270.0,5.31,274.0,5.89,12.41,47.59359,-54.27349
2020-01-04 11:34:01+00:00,265.0,4.87,269.0,5.8,12.41,47.59359,-54.27349
2020-01-04 11:44:01+00:00,253.0,5.28,258.0,5.99,12.41,47.59359,-54.27349
2020-01-04 11:54:01+00:00,247.0,5.8,247.0,6.64,12.41,47.59359,-54.27349
2020-01-04 12:04:01+00:00,246.0,5.76,240.0,6.37,12.41,47.59359,-54.27349
2020-01-04 12:14:01+00:00,251.0,5.07,257.0,5.79,12.41,47.59359,-54.27349
2020-01-04 12:24:01+00:00,250.0,4.55,251.0,5.14,12.41,47.59359,-54.27349
2020-01-04 12:34:01+00:00,253.0,4.69,262.0,5.69,12.41,47.59359,-54.27349
2020-01-04 12:44:01+00:00,261.0,4.85,257.0,5.63,12.41,47.59359,-54.27349
2020-01-04 12:54:01+00:00,262.0,5.54,262.0,6.1,12.41,47.59359,-54.27349
2020-01-04 13:04:01+00:00,260.0,5.3,262.0,5.94,12.41,47.59359,-54.27349
2020-01-04 13:14:01+00:00,251.0,4.96,253.0,5.73,12.41,47.59359,-54.27349
2020-01-04 13:24:01+00:00,248.0,4.62,255.0,5.4,12.41,47.59359,-54.27349
2020-01-04 13:34:01+00:00,248.0,4.89,252.0,5.75,12.41,47.59359,-54.27349
2020-01-04 13:44:01+00:00,249.0,6.26,249.0,7.02,12.41,47.59359,-54.27349
2020-01-04 13:54:01+00:00,242.0,5.17,244.0,6.11,12.41,47.59359,-54.27349
2020-01-04 14:04:01+00:00,242.0,5.6,243.0,6.61,12.41,47.59359,-54.27349
2020-01-04 14:14:01+00:00,249.0,6.12,250.0,6.96,12.57,47.59359,-54.27349
2020-01-04 14:24:01+00:00,252.0,5.38,258.0,6.51,12.57,47.59359,-54.27349
2020-01-04 14:34:01+00:00,249.0,5.85,247.0,6.52,12.57,47.59359,-54.27349
2020-01-04 14:44:01+00:00,250.0,6.01,249.0,6.32,12.57,47.59359,-54.27349
2020-01-04 14:54:01+00:00,245.0,5.75,251.0,7.1,12.57,47.59359,-54.27349
2020-01-04 15:04:01+00:00,239.0,5.81,233.0,6.99,12.57,47.59359,-54.27349
2020-01-04 15:14:01+00:00,242.0,5.31,238.0,5.85,12.49,47.59359,-54.27349
2020-01-04 15:24:01+00:00,254.0,5.15,256.0,6.2,12.49,47.59359,-54.27349
2020-01-04 15:34:01+00:00,250.0,5.41,252.0,5.98,12.49,47.59359,-54.27349
2020-01-04 15:44:01+00:00,254.0,5.09,254.0,5.59,12.49,47.59359,-54.27349
2020-01-04 15:54:01+00:00,256.0,5.6,259.0,6.2,12.49,47.59359,-54.27349
2020-01-04 16:04:01+00:00,254.0,5.01,254.0,5.59,12.49,47.59359,-54.27349
2020-01-04 16:14:01+00:00,258.0,5.89,256.0,6.4,12.49,47.59359,-54.27349
2020-01-04 16:24:01+00:00,268.0,5.35,272.0,5.99,12.49,47.59359,-54.27349
2020-01-04 16:34:01+00:00,265.0,4.95,268.0,5.42,12.49,47.59359,-54.27349
2020-01-04 16:44:01+00:00,255.0,5.18,256.0,5.58,12.49,47.59359,-54.27349
2020-01-04 16:54:01+00:00,261.0,4.28,259.0,4.75,12.49,47.59359,-54.27349
2020-01-04 17:04:01+00:00,256.0,3.93,259.0,4.53,12.49,47.59359,-54.27349
2020-01-04 17:14:01+00:00,245.0,4.55,247.0,5.61,12.41,47.59359,-54.27349
2020-01-04 17:24:01+00:00,253.0,5.39,252.0,6.05,12.41,47.59359,-54.27349
2020-01-04 17:34:01+00:00,256.0,5.8,261.0,6.69,12.41,47.59359,-54.27349
2020-01-04 17:44:01+00:00,253.0,4.7,255.0,5.42,12.41,47.59359,-54.27349
2020-01-04 17:54:01+00:00,283.0,4.03,283.0,4.38,12.41,47.59359,-54.27349
2020-01-04 18:04:01+00:00,324.0,2.41,302.0,3.5,12.41,47.59359,-54.27349
2020-01-04 18:14:01+00:00,358.0,2.04,352.0,2.45,12.49,47.59359,-54.27349
2020-01-04 18:24:01+00:00,7.0,2.82,12.0,3.09,12.49,47.59359,-54.27349
2020-01-04 18:34:01+00:00,5.0,1.71,1.0,1.98,12.49,47.59359,-54.27349
2020-01-04 18:44:01+00:00,357.0,1.45,0.0,1.64,12.49,47.59359,-54.27349
2020-01-04 18:54:01+00:00,34.0,0.89,25.0,1.06,12.49,47.59359,-54.27349
2020-01-04 19:04:01+00:00,90.0,0.4,77.0,0.63,12.49,47.59359,-54.27349
2020-01-04 19:14:01+00:00,155.0,0.85,144.0,1.06,12.49,47.59359,-54.27349
2020-01-04 19:24:01+00:00,267.0,0.59,259.0,1.4,12.49,47.59359,-54.27349
2020-01-04 19:34:01+00:00,244.0,1.82,250.0,2.71,12.49,47.59359,-54.27349
2020-01-04 19:44:01+00:00,304.0,4.58,299.0,5.54,12.49,47.59359,-54.27349
2020-01-04 19:54:01+00:00,290.0,4.54,296.0,5.31,12.49,47.59359,-54.27349
2020-01-04 20:04:01+00:00,287.0,3.47,282.0,3.97,12.49,47.59359,-54.27349
2020-01-04 20:14:01+00:00,284.0,2.61,287.0,3.26,12.41,47.59359,-54.27349
2020-01-04 20:24:01+00:00,280.0,2.48,262.0,2.99,12.41,47.59359,-54.27349
2020-01-04 20:34:01+00:00,271.0,3.49,274.0,4.27,12.41,47.59359,-54.27349
2020-01-04 20:44:01+00:00,286.0,5.57,284.0,7.08,12.41,47.59359,-54.27349
2020-01-04 20:54:01+00:00,300.0,3.61,305.0,4.37,12.41,47.59359,-54.27349
2020-01-04 21:04:01+00:00,325.0,4.58,329.0,5.19,12.41,47.59359,-54.27349
2020-01-04 21:14:01+00:00,321.0,4.61,323.0,5.21,12.41,47.59359,-54.27349
2020-01-04 21:24:01+00:00,318.0,4.92,316.0,5.72,12.41,47.59359,-54.27349
2020-01-04 21:34:01+00:00,334.0,5.91,342.0,7.51,12.41,47.59359,-54.27349
2020-01-04 21:44:01+00:00,327.0,4.79,325.0,5.5,12.41,47.59359,-54.27349
2020-01-04 21:54:01+00:00,320.0,3.53,315.0,4.1,12.41,47.59359,-54.27349
2020-01-04 22:04:01+00:00,327.0,2.93,325.0,3.21,12.41,47.59359,-54.27349
2020-01-04 22:14:01+00:00,323.0,3.65,330.0,3.96,12.41,47.59359,-54.27349
2020-01-04 22:24:01+00:00,318.0,4.13,315.0,4.91,12.41,47.59359,-54.27349
2020-01-04 22:34:01+00:00,300.0,3.55,303.0,3.85,12.41,47.59359,-54.27349
2020-01-04 22:44:01+00:00,307.0,2.61,315.0,3.13,12.41,47.59359,-54.27349
2020-01-04 22:54:01+00:00,307.0,2.28,307.0,2.49,12.41,47.59359,-54.27349
2020-01-04 23:04:01+00:00,273.0,2.49,282.0,2.99,12.41,47.59359,-54.27349
2020-01-04 23:14:01+00:00,307.0,2.54,303.0,2.86,12.33,47.59359,-54.27349
2020-01-04 23:24:01+00:00,294.0,2.2,288.0,2.57,12.33,47.59359,-54.27349
2020-01-04 23:34:01+00:00,283.0,2.02,273.0,2.47,12.33,47.59359,-54.27349
2020-01-04 23:44:01+00:00,279.0,3.35,273.0,3.81,12.33,47.59359,-54.27349
2020-01-04 23:54:01+00:00,279.0,3.31,280.0,3.79,12.33,47.59359,-54.27349
